Weather History for Hamilton Island, QU

Change the Weather History Date:

Tuesday, April 23, 2013

  Actual Average Record
Temperature  
Mean Temperature 77 °F -  
Max Temperature 82 °F - - ()
Min Temperature 72 °F - - ()
Cooling Degree Days 12    
Growing Degree Days 27 (Base 50)    
Moisture  
Dew Point 73 °F    
Average Humidity 88    
Maximum Humidity 100    
Minimum Humidity 69    
Precipitation  
Precipitation 0.00 in - - ()
Sea Level Pressure  
Sea Level Pressure 29.96 in    
Wind  
Wind Speed 5 mph ()    
Max Wind Speed 14 mph    
Max Gust Speed -    
T = Trace of Precipitation, MM = Missing Value Source: Averaged Metar Reports

Daily Weather History Graph

Daily Weather History Graph

Search for Another Location

Airport:

Trip Planner

Search our weather history database for the weather conditions in past years. The results will help you decide how hot, cold, wet, or windy it might be!

Date:

Astronomy

Apr. 23, 2013 Rise Set
Actual Time 6:17 AM AEST 5:47 PM AEST
Civil Twilight 5:55 AM AEST 6:09 PM AEST
Nautical Twilight 5:29 AM AEST 6:35 PM AEST
Astronomical Twilight 5:03 AM AEST 7:01 PM AEST
Moon 3:44 PM AEST (4/23) 3:25 AM AEST (4/23)
Length of Visible Light 12h 14m
Length of Day
11h 29m
Waxing Gibbous, 90% of the Moon is Illuminated
Apr 23
Waxing Gibbous
Apr 26
Full
May 2
Last Quarter
May 10
New
May 18
First Quarter

Hourly Weather History & Observations

Time (AEST) Temp. Heat Index Dew Point Humidity Pressure Visibility Wind Dir Wind Speed Gust Speed Precip Events Conditions
12:00 AM 75 °F - 72 °F 89% 29.97 in - North 2.3 mph - -  
12:00 AM 75.2 °F - 73.4 °F 94% 29.98 in - North 2.3 mph - N/A   Unknown
12:30 AM 75.2 °F - 71.6 °F 89% 29.95 in - North 2.3 mph - N/A   Unknown
1:00 AM 75.2 °F - 73.4 °F 94% 29.95 in - Calm Calm - N/A   Unknown
1:30 AM 75.2 °F - 73.4 °F 94% 29.95 in - Calm Calm - N/A   Unknown
2:00 AM 73.4 °F - 71.6 °F 94% 29.92 in - Calm Calm - N/A   Unknown
2:30 AM 75.2 °F - 73.4 °F 94% 29.92 in - Calm Calm - N/A   Unknown
3:00 AM 74 °F - 73 °F 95% 29.93 in - NNW 4.6 mph - -  
3:00 AM 73.4 °F - 73.4 °F 100% 29.92 in - NNW 4.6 mph - N/A   Unknown
3:30 AM 73.4 °F - 73.4 °F 100% 29.92 in - NW 5.8 mph - N/A   Unknown
4:00 AM 73.4 °F - 73.4 °F 100% 29.92 in - NW 5.8 mph - N/A   Unknown
4:30 AM 73.4 °F - 73.4 °F 100% 29.92 in - NW 4.6 mph - N/A   Unknown
5:00 AM 73.4 °F - 73.4 °F 100% 29.92 in - NW 6.9 mph - N/A   Unknown
5:30 AM 73.4 °F - 73.4 °F 100% 29.95 in - NW 5.8 mph - N/A   Unknown
6:00 AM 73 °F - 73 °F 99% 29.95 in - NW 5.8 mph - -  
6:00 AM 73.4 °F - 73.4 °F 100% 29.95 in - NW 5.8 mph - N/A   Unknown
6:30 AM 73.4 °F - 73.4 °F 100% 29.95 in - NW 5.8 mph - N/A   Unknown
7:00 AM 73.4 °F - 73.4 °F 100% 29.98 in - NW 4.6 mph - N/A   Unknown
7:30 AM 75.2 °F - 73.4 °F 94% 29.98 in - NNW 4.6 mph - N/A   Unknown
8:00 AM 77.0 °F - 73.4 °F 89% 29.98 in - Calm Calm - N/A   Unknown
8:30 AM 77.0 °F - 73.4 °F 89% 29.98 in - WNW 1.2 mph - N/A   Unknown
9:00 AM 78 °F - 73 °F 81% 30.00 in - NW 5.8 mph - -  
9:00 AM 78.8 °F - 73.4 °F 83% 30.01 in - NW 5.8 mph - N/A   Unknown
9:30 AM 78.8 °F - 73.4 °F 83% 30.01 in - NW 4.6 mph - N/A   Unknown
10:00 AM 78.8 °F - 73.4 °F 83% 30.01 in - NNW 5.8 mph - N/A   Unknown
10:30 AM 78.8 °F - 71.6 °F 78% 29.98 in - WNW 5.8 mph - N/A   Unknown
11:00 AM 80.6 °F 85.4 °F 73.4 °F 79% 29.98 in - NNW 8.1 mph - N/A   Unknown
11:30 AM 80.6 °F 85.4 °F 73.4 °F 79% 29.98 in - NW 10.4 mph - N/A   Unknown
12:00 PM 80 °F - 73 °F 73% 29.97 in - NW 9.2 mph - -  
12:00 PM 80.6 °F 85.4 °F 73.4 °F 79% 29.95 in - NW 9.2 mph - N/A   Unknown
12:30 PM 80.6 °F 85.4 °F 73.4 °F 79% 29.95 in - NW 11.5 mph - N/A   Unknown
1:00 PM 80.6 °F 85.4 °F 73.4 °F 79% 29.95 in - NW 12.7 mph - N/A   Unknown
1:30 PM 80.6 °F 85.4 °F 73.4 °F 79% 29.95 in - NW 12.7 mph - N/A   Unknown
2:00 PM 80.6 °F 84.6 °F 71.6 °F 74% 29.92 in - NW 13.8 mph - N/A   Unknown
2:30 PM 80.6 °F 85.4 °F 73.4 °F 79% 29.92 in - NW 12.7 mph - N/A   Unknown
3:00 PM 82 °F - 74 °F 69% 29.93 in - NW 11.5 mph - -  
3:00 PM 82.4 °F 88.2 °F 73.4 °F 74% 29.92 in - NW 11.5 mph - N/A   Unknown
3:30 PM 80.6 °F 85.4 °F 73.4 °F 79% 29.92 in - NW 12.7 mph - N/A   Unknown
4:00 PM 80.6 °F 85.4 °F 73.4 °F 79% 29.92 in - NNW 12.7 mph - N/A   Unknown
4:30 PM 80.6 °F 85.4 °F 73.4 °F 79% 29.92 in - NW 11.5 mph - N/A   Unknown
5:00 PM 78.8 °F - 73.4 °F 83% 29.92 in - NW 11.5 mph - N/A   Unknown
5:30 PM 78.8 °F - 73.4 °F 83% 29.92 in - NW 11.5 mph - N/A   Unknown
6:00 PM 77 °F - 73 °F 85% 29.94 in - NW 10.4 mph - -  
6:00 PM 77.0 °F - 73.4 °F 89% 29.95 in - NW 10.4 mph - N/A   Unknown
6:30 PM 77.0 °F - 73.4 °F 89% 29.95 in - North 8.1 mph - N/A   Unknown
7:00 PM 77.0 °F - 73.4 °F 89% 29.95 in - North 6.9 mph - N/A   Unknown
7:30 PM 77.0 °F - 73.4 °F 89% 29.98 in - North 6.9 mph - N/A   Unknown
8:00 PM 75.2 °F - 73.4 °F 94% 29.98 in - North 5.8 mph - N/A   Unknown
8:30 PM 75.2 °F - 73.4 °F 94% 29.98 in - North 5.8 mph - N/A   Unknown
9:00 PM 76 °F - 73 °F 86% 30.00 in - North 6.9 mph - -  
9:00 PM 75.2 °F - 73.4 °F 94% 30.01 in - North 6.9 mph - N/A   Unknown
9:30 PM 75.2 °F - 73.4 °F 94% 30.01 in - North 5.8 mph - N/A   Unknown
10:30 PM 75.2 °F - 71.6 °F 89% 30.01 in - North 6.9 mph - N/A   Unknown
11:00 PM 75.2 °F - 71.6 °F 89% 30.01 in - Calm Calm - N/A   Unknown
11:30 PM 75.2 °F - 71.6 °F 89% 30.01 in - North 3.5 mph - N/A   Unknown